Location: Newark
(52.3500°N, 175.9667°E)
Time: 22:53:06
(UTC+00:00)

Altair - Pass Details

Date: 01 May 2021
Orbit: 1501 x 1683 km, 47.2° (Epoch: 06 May)

Event Time Altitude Azimuth Distance (km) Brightness Sun altitude
Rises 16:14:15 0° 243° (WSW) 4,918 - -4.8°
Exits shadow 16:15:56 - 241° (WSW) 4,395 9.2 -4.6°
Reaches altitude 10° 16:17:29 10° 240° (WSW) 3,919 8.9 -4.4°
Maximum altitude 16:27:15 59° 164° (SSE) 1,838 7.9 -3.1°
Drops below altitude 10° 16:36:41 10° 88° (E) 3,797 10.8 -1.8°
Sets 16:39:46 0° 85° (E) 4,758 11.6 -1.4°
